Location: Recife
(8.0585°S, 34.8848°W)
Time: 11:57:59
(UTC-03:00)

Transit 2A Rocket - All Passes

Search period start: 14 April 2026 00:00
Search period end: 24 April 2026 00:00
Orbit: 585 x 897 km, 66.7° (Epoch: 14 April)

Date Brightness Start Highest point End Pass type
(mag) Time Alt. Az. Time Alt. Az. Time Alt. Az.
14 Apr - 00:55:05 10° SW 01:00:03 28° WNW 01:05:05 10° NNW night (unlit)
14 Apr - 11:47:15 10° NNE 11:50:39 23° ENE 11:54:05 10° SE daylight
14 Apr - 13:30:44 10° W 13:32:45 13° WSW 13:34:45 10° SW daylight
14 Apr - 22:30:10 10° SE 22:32:07 12° ESE 22:34:06 10° E night (unlit)
15 Apr - 00:08:38 10° SSW 00:14:26 59° WNW 00:20:20 10° N night (unlit)
15 Apr - 12:43:11 10° NW 12:47:01 33° WSW 12:50:55 10° S daylight
15 Apr - 23:22:56 10° SSW 23:28:48 66° ESE 23:34:45 10° NNE night (unlit)
16 Apr - 11:57:08 10° NNW 12:01:23 87° ENE 12:05:41 10° SSE daylight
16 Apr - 22:37:57 10° S 22:43:07 31° ESE 22:48:21 10° NE night (unlit)
17 Apr - 00:20:44 10° WSW 00:25:16 23° WNW 00:29:51 10° NNW night (unlit)
17 Apr - 11:12:03 10° N 11:15:48 31° ENE 11:19:35 10° SE daylight
17 Apr - 21:54:09 10° SSE 21:57:22 15° ESE 22:00:37 10° E night (unlit)
17 Apr - 23:33:58 10° SW 23:39:39 48° WNW 23:45:23 10° N night (unlit)
18 Apr - 10:28:42 10° NE 10:30:14 12° ENE 10:31:45 10° E daylight
18 Apr - 12:08:40 10° NW 12:12:11 25° WSW 12:15:47 10° SSW daylight
18 Apr - 22:48:05 10° SSW 22:54:01 82° ESE 23:00:02 10° NNE night (unlit)
19 Apr - 11:22:19 10° NNW 11:26:31 70° WSW 11:30:49 10° SSE daylight
19 Apr - 22:02:53 10° S 22:08:21 39° ESE 22:13:53 10° NE night (unlit)
19 Apr - 23:46:30 10° WSW 23:50:28 18° WNW 23:54:26 10° NNW night (unlit)
20 Apr - 10:36:57 10° N 10:40:56 40° ENE 10:44:59 10° SE daylight
20 Apr - 21:18:36 10° SSE 21:22:37 19° ESE 21:26:39 10° ENE night (unlit)
20 Apr - 22:59:22 10° SW 23:04:51 39° WNW 23:10:22 10° N night (unlit)
21 Apr - 09:52:49 10° NE 09:55:21 16° ENE 09:57:55 10° ESE daylight
21 Apr - 11:34:15 10° WNW 11:37:22 20° WSW 11:40:31 10° SSW daylight
21 Apr - 22:13:16 10° SSW 22:19:13 82° WNW 22:25:13 10° NNE night (unlit)
22 Apr - 10:47:33 10° NW 10:51:40 52° WSW 10:55:53 10° S daylight
22 Apr - 21:27:51 10° S 21:33:33 48° ESE 21:39:18 10° NE night (unlit)
22 Apr - 23:12:30 10° WSW 23:15:38 15° WNW 23:18:47 10° NW night (unlit)
23 Apr - 10:01:54 10° N 10:06:03 55° ENE 10:10:16 10° SSE daylight
23 Apr - 20:43:14 10° SSE 20:47:50 23° ESE 20:52:27 10° ENE night (unlit)
23 Apr - 22:24:50 10° SW 22:30:02 31° WNW 22:35:15 10° N night (unlit)
